Погода в Ропажах

Латвия     56°58′22″N   24°37′35″E
темп.,
°C
ветер,
м/с
пор.,
м/с
влажн.,
%
обл.,
%
осадки,
мм/ч
давл.,
гПа
погр.,
м
5 марта, пт
пт523:00−2зсз39801 0.0 1011638
02:00−2сз496946 0.1 10121180
05:00−3ссз597192 0.1 10131113
08:00−4ссз495257 0.1 1014996
11:00−1сз47390 0.0 10151471
14:00+1зсз364416 0.0 10161688
17:00−1сз365896 0.2 10161148
20:00−3с377798 0.4 1019906
6 марта, сб
сб623:00−4с385821 0.0 1021449
02:00−5сз236311 0.0 1023142
05:00−5зсз22740 0.0 102384
08:00−4зюз24768 0.0 1023200
11:000зюз48480 0.0 10221198
14:00+2зюз6114829 0.0 10181549
17:00+2зюз61349100 0.0 10151489
20:000зюз61656100 0.0 10111382
7 марта, вс
вс723:00+1зюз61481100 0.2 10061196
02:00−2ссз81494100 2.6 1004876
05:00−2сз61254100 0.9 10061873
08:00−3зсз395866 0.9 10061261
11:00−1зсз81350100 0.4 10052105
14:000зсз81549100 0.9 10032470
17:00−1зсз91660100 0.4 10022164
20:00−4сз71576100 0.6 10041512
8 марта, пн
пн823:00−5сз61077100 0.2 10071172
02:00−5ссз387592 0.2 1009830
05:00−6сз148196 0.0 1010260
08:00−6ссз368081 0.1 1012720
11:00−5с4659100 0.1 10141050
14:00−4ссз4757100 0.1 10161318
17:00−5с4755100 0.0 10181366
20:00−7с386266 0.0 1021805
9 марта, вт
вт923:00−8с27700 0.0 1023431
02:00−9ссз12740 0.0 102439
05:00−9зсз117216 0.0 102521
08:00−8зюз136814 0.0 1026125
11:00−3з24580 0.0 1026732
14:00−1з35410 0.0 10271055
17:00−1зюз36440 0.0 1026918
20:00−4юз38560 0.0 1026273